Tracking 30264 objects as of 16-Feb-2025
HD Live streaming from Space Station
objects crossing your sky now

STARLINK-32682

Track STARLINK-32682 now!
10-day predictions
STARLINK-32682 is classified as:


NORAD ID: 62196
Int'l Code: 2024-229E
Perigee: 434.4 km
Apogee: 436.4 km
Inclination: 43.0 °
Period: 93.1 minutes
Semi major axis: 6806 km
RCS: Unknown
Launch date: December 4, 2024
Source: United States (US)
Launch site: AIR FORCE EASTERN TEST RANGE (AFETR)
Your satellite tracking list
Your tracking list is empty




NASA's NSSDC Master Catalog

Two Line Element Set (TLE):
1 62196U 24229E   25046.58336806 -.01374706  00000-0 -30595-1 0  9992
2 62196  42.9991 277.4515 0001487 263.3658 274.1253 15.46060647  6025
Source of the keplerian elements: AFSPC